PDT,Max TemperatureF,Mean TemperatureF,Min TemperatureF,Max Dew PointF,MeanDew PointF,Min DewpointF,Max Humidity, Mean Humidity, Min Humidity, Max Sea Level PressureIn, Mean Sea Level PressureIn, Min Sea Level PressureIn, Max VisibilityMiles, Mean VisibilityMiles, Min VisibilityMiles, Max Wind SpeedMPH, Mean Wind SpeedMPH, Max Gust SpeedMPH,PrecipitationIn, CloudCover, Events, WindDirDegrees
2013-7-1,97,81,65,55,49,45,48,33,18,29.86,29.80,29.77,,,,18,7,23,0.00,,,183
2013-7-2,99,80,60,57,51,43,60,38,16,29.91,29.87,29.84,,,,23,9,28,0.00,,,180
2013-7-3,94,76,57,55,51,45,69,46,22,29.87,29.82,29.76,,,,21,7,24,0.00,,,216
2013-7-4,96,75,54,51,43,23,66,38,10,29.79,29.74,29.71,,,,23,10,26,0.00,,,188
2013-7-5,91,74,57,55,48,33,57,37,17,29.76,29.73,29.70,,,,24,10,26,0.00,,,190
2013-7-6,91,75,58,57,54,51,72,53,34,29.75,29.72,29.68,,,,23,9,29,0.00,,,206
2013-7-7,98,78,57,56,53,46,78,48,18,29.81,29.74,29.71,,,,20,7,28,0.00,,,256
2013-7-8,102,80,58,50,44,36,69,40,11,29.87,29.83,29.80,,,,18,7,24,0.00,,,311
2013-7-9,99,83,67,53,47,35,37,25,12,29.93,29.89,29.86,,,,23,8,28,0.00,,,218
2013-7-10,85,76,67,58,53,50,55,43,31,29.94,29.89,29.86,,,,14,4,17,0.00,,,219
2013-7-11,80,73,66,62,58,51,68,57,45,29.91,29.87,29.83,,,,15,5,17,0.00,,,227
2013-7-12,92,77,61,60,57,54,84,57,29,29.87,29.84,29.78,,,,20,6,26,0.00,,,230
2013-7-13,93,76,58,57,53,48,84,54,23,29.88,29.85,29.81,,,,21,6,25,0.00,,,228
2013-7-14,95,78,60,50,47,39,60,40,20,29.87,29.82,29.77,,,,21,8,28,0.00,,,212
2013-7-15,95,77,59,50,44,37,55,35,15,29.81,29.78,29.74,,,,24,10,31,0.00,,,270
2013-7-16,91,72,53,46,35,19,71,40,8,29.93,29.86,29.80,,,,22,9,28,0.00,,,264
2013-7-17,94,70,46,51,28,1,41,22,3,29.96,29.93,29.90,,,,21,8,26,0.00,,,345
2013-7-18,96,72,48,51,41,29,66,40,13,29.93,29.87,29.81,,,,20,9,26,0.00,,,185
2013-7-19,93,74,55,54,46,39,62,40,17,29.85,29.81,29.76,,,,20,6,22,0.00,,,210
2013-7-20,88,73,58,66,55,44,67,51,34,29.81,29.77,29.75,,,,20,9,24,0.00,,,82
2013-7-21,87,75,62,68,63,57,90,69,48,29.93,29.82,29.75,,,,21,6,24,0.18,,,53
2013-7-22,85,74,63,67,62,58,100,73,46,29.93,29.89,29.86,,,,17,6,22,0.00,,,233
2013-7-23,89,75,60,61,59,57,90,65,39,29.94,29.90,29.86,,,,20,7,28,0.00,,,229
2013-7-24,94,77,60,59,57,56,90,59,28,29.90,29.86,29.81,,,,20,7,25,0.00,,,276
2013-7-25,96,76,56,57,54,48,87,55,23,29.93,29.89,29.86,,,,21,7,26,0.00,,,240
2013-7-26,91,78,64,63,54,44,78,50,21,30.02,29.96,29.92,,,,17,5,22,0.01,,,210
2013-7-27,92,76,59,55,51,42,75,47,18,29.95,29.89,29.82,,,,23,9,26,0.00,,,201
2013-7-28,89,70,50,52,46,37,77,48,18,29.85,29.83,29.80,,,,21,9,28,0.00,,,198
2013-7-29,89,69,49,52,47,42,77,50,22,29.96,29.89,29.84,,,,20,9,25,0.00,,,186
2013-7-30,87,70,53,54,50,47,77,53,29,30.02,29.99,29.96,,,,17,7,22,0.00,,,208
2013-7-31,88,70,52,53,47,39,83,51,19,30.01,29.96,29.92,,,,16,6,23,0.00,,,239